Location: Anjeux
(47.8815°N, 6.2076°E)
Time: 21:59:40
(UTC+00:00)

X-37B - Pass Details

Date: 26 September 2021
Orbit: 322 x 349 km, 45.0° (Epoch: 28 October)

Event Time Altitude Azimuth Distance (km) Brightness Sun altitude
Exits shadow 02:58:50 - 111° (ESE) 1,266 3.7 -24.8°
Enters shadow 03:53:39 -72° 262° (W) 12,478 8.2 -16.3°
Maximum altitude 04:31:56 40° 172° (S) 490 1.1 -10.1°
